Location: Mat�lon
(46.2791°N, 7.1028°E)
Time: 06:41:23
(UTC+00:00)

Lacrosse 5 rocket - Pass Details

Date: 18 September 2020
Orbit: 460 x 635 km, 57.0° (Epoch: 23 October)

Event Time Altitude Azimuth Distance (km) Brightness Sun altitude
Rises 19:46:42 0° 288° (WNW) 2,784 6.3 -22.4°
Reaches altitude 10° 19:49:22 10° 304° (NW) 1,919 5.2 -22.8°
Maximum altitude 19:52:44 21° 355° (N) 1,376 3.7 -23.3°
Enters shadow 19:55:10 14° 34° (NE) 1,714 3.8 -23.7°
